STARLINK-37661, 69147

Orbit data source: Space-Track

STARLINK-37661, 69147 is a payload satellite owned by SpaceX/Seattle (US) in SSO that was launched on Wed, 20 May 2026 UTC via an FALCON 9 launch vehicle from the Air Force Western Test Range (AFWTR). Payload-class satellites include a variety of spacecraft equipped with specific instruments for various scientific and technological missions. These include communications satellites like Starlink; space stations such as the ISS; scientific satellites like the Hubble; Earth observation satellites from companies like Planet Labs, Umbra, and HawkEye 360; GPS; miniature CubeSats for education and research; and military/defense satellites.

Loading next visibility...
Identifier
69147, 2026-110Z
Orbit
SSO
Country
Flag of USUS
Related business
Manufacturer
SpaceX/Seattle
Mission
Operational spacecraft
Bus & Motor
STARLINK V2MO, Unknown motor
Mass
575 kg wet, ~530 kg dry
Launch date (UTC)
2026-05-20 (1 month ago)
Launch vehicle
FALCON 9
Launch site
Air Force Western Test Range (AFWTR)
Object type
Payload
Rocket body
Debris
Shape & HBR
Unknown shape, 14.5 m
Radar Cross Section
Large (>1 m²)

Expand to show TLE details & history
Last TLE update: 1 day ago

TLE from 1 day ago
0 STARLINK-37661
1 69147U 26110Z   26170.48605052 -.00042136  00000-0 -78036-3 0  9998
2 69147  97.2838   6.8976 0002553 167.4065 192.7250 15.49070640  5968
Epoch: 2026-06-19T11:39Z
TLE epoch observation values (Epoch: 2026-06-19T11:39:54.764Z)
Latitude
-0.00009°
Longitude
-75.79491°
Altitude
424.27 km
Speed
7.656 km/s
True Right ascension
00h 27m 35s
True Declination
0° 00' 00"
Sunlit
Object was in daylight at epoch
Visualization orbit readout
Latitude
Unknown
Longitude
Unknown
Altitude
Unknown
Speed
Unknown
Apparent Right ascension
Unknown
Apparent Declination
Unknown
Sunlit
N/A
Visualization observer readout
Local Sidereal Time
07:11:55
Azimuth
Unknown
Elevation
Unknown
Doppler factor
Unknown
Orbital elements
Apogee altitude
418.1 km
Perigee altitude
414.631 km
Semi-major axis
6,794.502 km
Eccentricity
0.00026
Inclination
97.2838°
RAAN
6.8976°
Arg. of periapsis
167.4065°
True anomaly
192.71856°
Mean anomaly
192.725°
Eccentric anomaly
192.72178°
Mean motion
3.87531 °/min
Orbital period
92.9 mins
BSTAR
-0.00078036
Loading maneuver chart data...
Computing Atmospheric mass density...
Loading historical data...
Loading historical data...
Loading historical data...
Loading historical data...
Loading historical data...
Loading historical data...
Loading historical data...

Documentation

Showing up to 5 results
|